Current weather by "City, St" or "zip code"  
 

Current Conditions: Fort Rucker, Lowe Army Heliport, AL

Fog/Mist


65.0 F

Last Updated on Oct 24 2020, 8:58 pm CDT
Humidity: 97%
Wind Speed: N 0.0 mph
Barometer 29.91 in
Dewpoint: 64.6 F
Visibility: 1.88 mi
Precip: --
Heat Index: NA
Wind Chill: NA
Current conditions at:

Fort Rucker, Lowe Army Heliport, AL (KLOR)

Lat: 31.35889 Lon: 85.74833

Local Radar Image active severe weather and emergency alerts image image weather storm and storm spotter reports image weather observation monitoring service image
Local
Radar
Active
Alerts
Storm Reports Obs
Monitoring

Sign-up For Email & Text Message Weather Alert Notification Services



Advertise Here

Observation History for Fort Rucker, Lowe Army Heliport, AL


Time Wind
(mph)
Vis
(mi)
Weather Precip (in) Temperature (F) Relative
Humidity
Wind
Chill
(F)
Heat
Index
(F)
Pressure
Air Dwpt altimeter
(in)
sea level
(mb)
Rmks
8:58 pm CDT N 0.0 1.88 Fog/Mist -- 65.0 64.6 97% NA NA 29.91 1011.0
7:58 pm CDT N 0.0 2.75 Fog/Mist -- 66.0 64.4 94% NA NA 29.89 1010.4
5:58 pm CDT N 0.0 3.00 Light Rain Fog/Mist 00.01 70.0 67.1 91% NA NA 29.89 1010.3
4:58 pm CDT N 0.0 10.00 Partly Cloudy -- 71.0 68.4 90% NA NA 29.90 1010.7
3:58 pm CDT S 3.5 10.00 Fair -- 70.0 67.1 91% NA NA 29.90 1010.7
2:58 pm CDT SE 3.5 10.00 Overcast 00.01 70.0 68.9 96% NA NA 29.91 1011.0
1:58 pm CDT N 0.0 1.50 Rain Fog/Mist Thunderstorm in Vicinity 00.01 69.0 67.6 96% NA NA 29.90 1010.7
12:58 pm CDT N 0.0 3.00 Light Rain Fog/Mist Thunderstorm in Vicinity 00.02 70.0 68.0 94% NA NA 29.92 1011.4
11:58 am CDT N 0.0 1.88 Thunderstorm Light Rain Fog/Mist -- 73.0 71.6 94% NA NA 29.96 1012.7
10:58 am CDT N 0.0 1.75 Light Rain Fog/Mist -- 73.0 71.1 93% NA NA 29.98 1013.4
9:58 am CDT N 0.0 8.00 Thunderstorm in Vicinity -- 73.0 70.5 92% NA NA 29.99 1013.7
8:58 am CDT SE 4.6 6.00 Fog/Mist -- 72.0 69.6 93% NA NA 29.99 1013.7
7:58 am CDT N 0.0 5.00 Fog/Mist -- 69.0 68.0 96% NA NA 29.98 1013.4
6:58 am CDT N 0.0 4.00 Fog/Mist -- 68.0 66.6 96% NA NA 29.97 1013.0
5:58 am CDT N 0.0 4.00 Fog/Mist -- 67.0 66.0 96% NA NA 29.97 1013.0
4:58 am CDT N 0.0 3.00 Fog/Mist -- 67.0 65.8 96% NA NA 29.97 1013.0
3:58 am CDT N 0.0 2.00 Fog/Mist -- 68.0 66.2 94% NA NA 29.96 1012.7
2:58 am CDT N 0.0 8.00 Fair -- 69.0 67.6 95% NA NA 29.98 1013.3
1:58 am CDT N 0.0 8.00 Mostly Cloudy -- 69.0 67.5 96% NA NA 29.99 1013.6
12:58 am CDT N 0.0 9.00 Overcast -- 69.0 68.0 96% NA NA 30.00 1014.0
11:58 pm CDT N 0.0 10.00 Overcast -- 69.0 67.3 96% NA NA 30.02 1014.7
10:58 pm CDT N 0.0 10.00 Fair -- 70.0 68.7 96% NA NA 30.03 1015.0
9:58 pm CDT N 0.0 7.00 Fair -- 69.0 68.4 96% NA NA 30.02 1014.7

Regional Weather Observation


Fort Rucker, Lowe Army Heliport, AL (KLOR)

Fog/Mist
65.0 F

Cairns Army Air Field / Ozark, AL (KOZR)

Fair
68.0 F

Hanchey AHP / Ozark, AL (KHEY)

Fog/Mist
65.0 F

Dothan, Dothan Regional Airport, AL (KDHN)

Mostly Cloudy
67.0 F

Andalusia, Andalusia-Opp Municipal Airport, AL (K79J)

Mostly Cloudy
71.0 F

Florala, Florala Municipal Airport, AL (K0J4)

Mostly Cloudy
68.0 F